Home   Weather   61°13'N, 149°50'W   Past weeks
Flag for USA

Past Weather in 61°13'N, 149°50'W, USA — Yesterday and Last 2 Weeks

Now
62 °F

Clear.


Feels Like: 62 °F
Forecast: 70 / 58 °F
Wind: 5 mph from Southwest

Location: Lake Hood Seaplane

Current Time: Jul 22, 2019 at 4:11:00 am

Latest Report: Jul 22, 2019 at 2:53 am


Visibility: 10 mi

Pressure: 30.09 "Hg

Humidity: 78%

Dew Point: 55 °F

Location of 61°13'N, 149°50'WLocation

Past Weather in 61°13'N, 149°50'W — Graph

°F

61°13'N, 149°50'W Temperature Yesterday

Maximum temperature yesterday: 77 °F (at 5:53 pm)
Minimum temperature yesterday: 59 °F (at 12:53 am)
Average temperature yesterday: 67 °F

High & Low Weather Summary for the Past Weeks

 TemperatureHumidityPressure
High87 °F (Jul 7, 5:53 pm)96% (Jul 11, 9:53 am)30.14 "Hg (Jul 11, 9:53 am)
Low56 °F (Jul 17, 4:53 am)37% (Jul 7, 5:53 pm)29.55 "Hg (Jul 16, 8:53 pm)
Average65 °F70%29.88 "Hg
* Reported Jul 7 2:53 am — Jul 22 2:53 am, 61°13'N, 149°50'W. Weather by CustomWeather, © 2019

Note: Actual official high and low records may vary slightly from our data, if they occured in-between our weather recording intervals... More about our weather records

Advertising

61°13'N, 149°50'W Weather History for the Previous 24 Hours

Scroll right to see more
 ConditionsComfort  
Time TempWeatherWind HumidityBarometerVisibility
2:53 am
Mon, Jul 22
62 °FClear.5 mph78%30.09 "Hg10 mi
1:53 am62 °FClear.3 mph78%30.09 "Hg10 mi
12:53 am62 °FClear.3 mph75%30.09 "Hg10 mi
11:53 pm
Sun, Jul 21
64 °FClear.5 mph70%30.08 "Hg10 mi
10:53 pm66 °FSunny.3 mph59%30.07 "Hg10 mi
9:53 pm70 °FSunny.3 mph53%30.06 "Hg10 mi
8:53 pm73 °FSunny.5 mph50%30.06 "Hg10 mi
7:53 pm75 °FSunny.8 mph45%30.06 "Hg10 mi
6:53 pm74 °FSunny.10 mph48%30.06 "Hg10 mi
5:53 pm77 °FSunny.10 mph44%30.07 "Hg10 mi
4:53 pm74 °FSunny.8 mph53%30.08 "Hg10 mi
3:53 pm75 °FSunny.8 mph52%30.09 "Hg10 mi
2:53 pm74 °FSunny.8 mph53%30.10 "Hg10 mi
1:53 pm72 °FSunny.7 mph53%30.11 "Hg10 mi
12:53 pm71 °FSunny.5 mph57%30.12 "Hg10 mi
11:53 am68 °FSunny.7 mph65%30.13 "Hg10 mi
10:53 am67 °FSunny.3 mph68%30.14 "Hg10 mi
9:53 am66 °FSunny.3 mph73%30.14 "Hg10 mi
8:53 am64 °FSunny.3 mph73%30.14 "Hg10 mi
7:53 am63 °FSunny.3 mph78%30.14 "Hg10 mi
6:53 am61 °FOvercast.No wind81%30.14 "Hg10 mi
5:53 am59 °FOvercast.No wind90%30.14 "Hg9 mi
4:53 am61 °FOvercast.No wind83%30.14 "Hg10 mi
Weather by CustomWeather, © 2019

See weather overview